owner,sensor,date,latitude,longitude,vertical_datum,direction_of_sea_water_velocity,sea_water_speed,upward_sea_water_velocity,qcFlag 
TABS,ioos:station:wmo:42044:1,2006-05-01T00:00:00Z,26.1914,-97.0507,2.0,218.0582608,15.32929874,-99999.0,'11111222,11111222,99999999' 
TABS,ioos:station:wmo:42044:1,2006-05-01T00:30:00Z,26.1914,-97.0507,2.0,212.5653978,14.4166605,-99999.0,'11111222,11111222,99999999' 
TABS,ioos:station:wmo:42044:1,2006-05-01T01:00:00Z,26.1914,-97.0507,2.0,213.2883504,13.06351025,-99999.0,'11111222,11111222,99999999' 
TABS,ioos:station:wmo:42044:1,2006-05-01T01:30:00Z,26.1914,-97.0507,2.0,200.4282167,12.09038047,-99999.0,'11111222,11111222,99999999' 
TABS,ioos:station:wmo:42044:1,2006-05-01T02:00:00Z,26.1914,-97.0507,2.0,204.1336156,13.9163968,-99999.0,'11111222,11111222,99999999' 
TABS,ioos:station:wmo:42044:1,2006-05-01T02:30:00Z,26.1914,-97.0507,2.0,191.2996419,11.17665871,-99999.0,'11111222,11111222,99999999' 
TABS,ioos:station:wmo:42044:1,2006-05-01T03:00:00Z,26.1914,-97.0507,2.0,208.1766695,10.97001823,-99999.0,'11111222,11111222,99999999' 
TABS,ioos:station:wmo:42044:1,2006-05-01T03:30:00Z,26.1914,-97.0507,2.0,197.6711756,12.81468689,-99999.0,'11111222,11111222,99999999' 
TABS,ioos:station:wmo:42044:1,2006-05-01T04:00:00Z,26.1914,-97.0507,2.0,193.9013772,10.32234469,-99999.0,'11111222,11111222,99999999' 
TABS,ioos:station:wmo:42044:1,2006-05-01T04:30:00Z,26.1914,-97.0507,2.0,191.4278308,12.3651486,-99999.0,'11111222,11111222,99999999' 
TABS,ioos:station:wmo:42044:1,2006-05-01T05:00:00Z,26.1914,-97.0507,2.0,189.3055056,13.2341679,-99999.0,'11111222,11111222,99999999' 
TABS,ioos:station:wmo:42044:1,2006-05-01T05:30:00Z,26.1914,-97.0507,2.0,194.814231,13.57112007,-99999.0,'11111222,11111222,99999999' 
TABS,ioos:station:wmo:42044:1,2006-05-01T06:00:00Z,26.1914,-97.0507,2.0,193.6886177,12.0008833,-99999.0,'11111222,11111222,99999999' 
TABS,ioos:station:wmo:42044:1,2006-05-01T06:30:00Z,26.1914,-97.0507,2.0,193.2132325,13.34326047,-99999.0,'11111222,11111222,99999999' 
TABS,ioos:station:wmo:42044:1,2006-05-01T07:00:00Z,26.1914,-97.0507,2.0,182.364501,12.36052588,-99999.0,'11111222,11111222,99999999' 
TABS,ioos:station:wmo:42044:1,2006-05-01T07:30:00Z,26.1914,-97.0507,2.0,179.7481265,13.66013177,-99999.0,'11111222,11111222,99999999' 
TABS,ioos:station:wmo:42044:1,2006-05-01T08:00:00Z,26.1914,-97.0507,2.0,189.5047044,17.68275997,-99999.0,'11111222,11111222,99999999' 
TABS,ioos:station:wmo:42044:1,2006-05-01T08:30:00Z,26.1914,-97.0507,2.0,188.7577754,14.71153289,-99999.0,'11111222,11111222,99999999' 
TABS,ioos:station:wmo:42044:1,2006-05-01T09:00:00Z,26.1914,-97.0507,2.0,190.9225687,15.6739593,-99999.0,'11111222,11111222,99999999' 
TABS,ioos:station:wmo:42044:1,2006-05-01T09:30:00Z,26.1914,-97.0507,2.0,190.1016424,14.13919375,-99999.0,'11111222,11111222,99999999' 
TABS,ioos:station:wmo:42044:1,2006-05-01T19:00:00Z,26.1914,-97.0507,2.0,281.4938486,3.061388574,-99999.0,'11133222,11111222,99999999' 
TABS,ioos:station:wmo:42044:1,2006-05-01T19:30:00Z,26.1914,-97.0507,2.0,290.2865493,3.230371496,-99999.0,'11133222,11111222,99999999' 
TABS,ioos:station:wmo:42044:1,2006-05-01T20:00:00Z,26.1914,-97.0507,2.0,293.1136641,7.056415521,-99999.0,'11133222,11111222,99999999' 
TABS,ioos:station:wmo:42044:1,2006-05-01T20:30:00Z,26.1914,-97.0507,2.0,290.2517045,7.482546358,-99999.0,'11133222,11111222,99999999' 
TABS,ioos:station:wmo:42044:1,2006-05-01T21:00:00Z,26.1914,-97.0507,2.0,280.2069165,8.860208801,-99999.0,'11133222,11111222,99999999' 
TABS,ioos:station:wmo:42044:1,2006-05-01T21:30:00Z,26.1914,-97.0507,2.0,221.6332315,3.251230536,-99999.0,'11133222,11111222,99999999' 
TABS,ioos:station:wmo:42044:1,2006-05-01T22:00:00Z,26.1914,-97.0507,2.0,213.4650906,4.950737319,-99999.0,'11133222,11111222,99999999' 
TABS,ioos:station:wmo:42044:1,2006-05-01T22:30:00Z,26.1914,-97.0507,2.0,224.1445889,3.790514477,-99999.0,'11133222,11111222,99999999' 
TABS,ioos:station:wmo:42044:1,2006-05-01T23:00:00Z,26.1914,-97.0507,2.0,189.4738353,8.019382769,-99999.0,'11133222,11111222,99999999' 
TABS,ioos:station:wmo:42044:1,2006-05-01T23:30:00Z,26.1914,-97.0507,2.0,221.3060651,5.817430704,-99999.0,'11133222,11111222,99999999' 
TABS,ioos:station:wmo:42044:1,2006-05-02T00:00:00Z,26.1914,-97.0507,2.0,256.1671941,6.81771956,-99999.0,'11133222,11111222,99999999' 
TABS,ioos:station:wmo:42044:1,2006-05-02T00:30:00Z,26.1914,-97.0507,2.0,283.8121395,5.57108607,-99999.0,'11133222,11111222,99999999' 
TABS,ioos:station:wmo:42044:1,2006-05-02T01:00:00Z,26.1914,-97.0507,2.0,275.3059148,10.27401577,-99999.0,'11111222,11111222,99999999' 
TABS,ioos:station:wmo:42044:1,2006-05-02T01:30:00Z,26.1914,-97.0507,2.0,271.6139561,7.813097977,-99999.0,'11133222,11111222,99999999' 
TABS,ioos:station:wmo:42044:1,2006-05-02T02:00:00Z,26.1914,-97.0507,2.0,251.5416353,7.864585177,-99999.0,'11133222,11111222,99999999' 
TABS,ioos:station:wmo:42044:1,2006-05-02T02:30:00Z,26.1914,-97.0507,2.0,257.5127909,5.920033784,-99999.0,'11133222,11111222,99999999' 
TABS,ioos:station:wmo:42044:1,2006-05-02T03:00:00Z,26.1914,-97.0507,2.0,225.8655475,5.615069011,-99999.0,'11133222,11111222,99999999' 
TABS,ioos:station:wmo:42044:1,2006-05-02T03:30:00Z,26.1914,-97.0507,2.0,286.4264962,4.420418532,-99999.0,'11133222,11111222,99999999' 
TABS,ioos:station:wmo:42044:1,2006-05-02T04:00:00Z,26.1914,-97.0507,2.0,265.4465933,6.550671721,-99999.0,'11133222,11111222,99999999' 
TABS,ioos:station:wmo:42044:1,2006-05-02T04:30:00Z,26.1914,-97.0507,2.0,302.6252132,6.862827406,-99999.0,'11133222,11111222,99999999' 
TABS,ioos:station:wmo:42044:1,2006-05-02T05:00:00Z,26.1914,-97.0507,2.0,291.9221482,6.187382322,-99999.0,'11133222,11111222,99999999' 
TABS,ioos:station:wmo:42044:1,2006-05-02T05:30:00Z,26.1914,-97.0507,2.0,268.511715,4.621558179,-99999.0,'11133222,11111222,99999999' 
TABS,ioos:station:wmo:42044:1,2006-05-02T06:00:00Z,26.1914,-97.0507,2.0,294.3598948,6.740029674,-99999.0,'11133222,11111222,99999999' 
TABS,ioos:station:wmo:42044:1,2006-05-02T06:30:00Z,26.1914,-97.0507,2.0,289.4682846,4.560745553,-99999.0,'11133222,11111222,99999999' 
TABS,ioos:station:wmo:42044:1,2006-05-02T07:00:00Z,26.1914,-97.0507,2.0,298.9163185,8.830956913,-99999.0,'11133222,11111222,99999999' 
TABS,ioos:station:wmo:42044:1,2006-05-02T07:30:00Z,26.1914,-97.0507,2.0,305.1624877,7.449308693,-99999.0,'11133222,11111222,99999999' 
TABS,ioos:station:wmo:42044:1,2006-05-02T08:00:00Z,26.1914,-97.0507,2.0,250.261218,8.201908315,-99999.0,'11133222,11111222,99999999' 
TABS,ioos:station:wmo:42044:1,2006-05-02T08:30:00Z,26.1914,-97.0507,2.0,285.296168,6.178875302,-99999.0,'11133222,11111222,99999999' 
TABS,ioos:station:wmo:42044:1,2006-05-02T09:00:00Z,26.1914,-97.0507,2.0,288.9514897,8.775676612,-99999.0,'11133222,11111222,99999999' 
TABS,ioos:station:wmo:42044:1,2006-05-02T09:30:00Z,26.1914,-97.0507,2.0,293.9403718,5.175219802,-99999.0,'11133222,11111222,99999999' 
TABS,ioos:station:wmo:42044:1,2006-05-02T10:00:00Z,26.1914,-97.0507,2.0,319.3291806,5.339747185,-99999.0,'11133222,11111222,99999999' 
TABS,ioos:station:wmo:42044:1,2006-05-02T10:30:00Z,26.1914,-97.0507,2.0,291.9510925,7.83822684,-99999.0,'11133222,11111222,99999999' 
TABS,ioos:station:wmo:42044:1,2006-05-02T11:00:00Z,26.1914,-97.0507,2.0,304.9010637,6.169643426,-99999.0,'11133222,11111222,99999999' 
TABS,ioos:station:wmo:42044:1,2006-05-02T11:30:00Z,26.1914,-97.0507,2.0,304.5899982,6.182895762,-99999.0,'11133222,11111222,99999999' 
TABS,ioos:station:wmo:42044:1,2006-05-02T12:00:00Z,26.1914,-97.0507,2.0,299.5475383,3.954250877,-99999.0,'11133222,11111222,99999999' 
TABS,ioos:station:wmo:42044:1,2006-05-02T12:30:00Z,26.1914,-97.0507,2.0,272.6268204,3.273438559,-99999.0,'11133222,11111222,99999999' 
TABS,ioos:station:wmo:42044:1,2006-05-02T13:00:00Z,26.1914,-97.0507,2.0,262.8003623,4.787744772,-99999.0,'11133222,11111222,99999999' 
TABS,ioos:station:wmo:42044:1,2006-05-02T13:30:00Z,26.1914,-97.0507,2.0,268.2439404,5.222451532,-99999.0,'11133222,11111222,99999999' 
TABS,ioos:station:wmo:42044:1,2006-05-02T14:00:00Z,26.1914,-97.0507,2.0,279.246512,3.920943764,-99999.0,'11133222,11111222,99999999' 
TABS,ioos:station:wmo:42044:1,2006-05-02T14:30:00Z,26.1914,-97.0507,2.0,287.9317268,4.677189327,-99999.0,'11133222,11111222,99999999' 
TABS,ioos:station:wmo:42044:1,2006-05-02T15:00:00Z,26.1914,-97.0507,2.0,252.229651,5.176997199,-99999.0,'11133222,11111222,99999999' 
TABS,ioos:station:wmo:42044:1,2006-05-02T15:30:00Z,26.1914,-97.0507,2.0,309.5118892,5.988363716,-99999.0,'11133222,11111222,99999999' 
TABS,ioos:station:wmo:42044:1,2006-05-02T16:00:00Z,26.1914,-97.0507,2.0,305.0662414,6.353148826,-99999.0,'11133222,11111222,99999999' 
TABS,ioos:station:wmo:42044:1,2006-05-02T16:30:00Z,26.1914,-97.0507,2.0,273.3668737,6.300872955,-99999.0,'11133222,11111222,99999999' 
TABS,ioos:station:wmo:42044:1,2006-05-02T17:00:00Z,26.1914,-97.0507,2.0,321.5875882,5.794100448,-99999.0,'11133222,11111222,99999999' 
TABS,ioos:station:wmo:42044:1,2006-05-02T17:30:00Z,26.1914,-97.0507,2.0,290.8911968,5.608707516,-99999.0,'11133222,11111222,99999999' 
TABS,ioos:station:wmo:42044:1,2006-05-02T18:00:00Z,26.1914,-97.0507,2.0,320.8729302,7.463792602,-99999.0,'11133222,11111222,99999999' 
TABS,ioos:station:wmo:42044:1,2006-05-02T18:30:00Z,26.1914,-97.0507,2.0,306.4019415,5.628187985,-99999.0,'11133222,11111222,99999999' 
TABS,ioos:station:wmo:42044:1,2006-05-02T19:00:00Z,26.1914,-97.0507,2.0,309.9455512,5.778321556,-99999.0,'11133222,11111222,99999999' 
TABS,ioos:station:wmo:42044:1,2006-05-02T19:30:00Z,26.1914,-97.0507,2.0,274.0571493,2.827083303,-99999.0,'11133222,11111222,99999999' 
TABS,ioos:station:wmo:42044:1,2006-05-02T20:00:00Z,26.1914,-97.0507,2.0,304.8830398,3.864324003,-99999.0,'11133222,11111222,99999999' 
TABS,ioos:station:wmo:42044:1,2006-05-02T20:30:00Z,26.1914,-97.0507,2.0,323.3835446,2.716026509,-99999.0,'11133222,11111222,99999999' 
TABS,ioos:station:wmo:42044:1,2006-05-02T21:00:00Z,26.1914,-97.0507,2.0,282.6807748,2.87,-99999.0,'11133222,11111222,99999999' 
TABS,ioos:station:wmo:42044:1,2006-05-02T21:30:00Z,26.1914,-97.0507,2.0,251.7317156,2.169331694,-99999.0,'11133222,11111222,99999999' 
TABS,ioos:station:wmo:42044:1,2006-05-02T22:00:00Z,26.1914,-97.0507,2.0,240.7752282,1.638566447,-99999.0,'11133222,11111222,99999999' 
TABS,ioos:station:wmo:42044:1,2006-05-02T22:30:00Z,26.1914,-97.0507,2.0,215.8873051,3.616531487,-99999.0,'11133222,11111222,99999999' 
TABS,ioos:station:wmo:42044:1,2006-05-02T23:00:00Z,26.1914,-97.0507,2.0,195.533881,3.061845849,-99999.0,'11133222,11111222,99999999' 
TABS,ioos:station:wmo:42044:1,2006-05-02T23:30:00Z,26.1914,-97.0507,2.0,174.0466258,3.760279245,-99999.0,'11133222,11111222,99999999' 
TABS,ioos:station:wmo:42044:1,2006-05-03T00:00:00Z,26.1914,-97.0507,2.0,245.1192704,0.760591875,-99999.0,'11133222,11111222,99999999' 
TABS,ioos:station:wmo:42044:1,2006-05-03T00:30:00Z,26.1914,-97.0507,2.0,163.2683415,1.702057578,-99999.0,'11133222,11111222,99999999' 
TABS,ioos:station:wmo:42044:1,2006-05-03T01:00:00Z,26.1914,-97.0507,2.0,162.2551594,6.562202374,-99999.0,'11133222,11111222,99999999' 
TABS,ioos:station:wmo:42044:1,2006-05-03T01:30:00Z,26.1914,-97.0507,2.0,188.1298729,4.242640687,-99999.0,'11133222,11111222,99999999' 
TABS,ioos:station:wmo:42044:1,2006-05-03T02:00:00Z,26.1914,-97.0507,2.0,200.146977,3.280746866,-99999.0,'11133222,11111222,99999999' 
TABS,ioos:station:wmo:42044:1,2006-05-03T02:30:00Z,26.1914,-97.0507,2.0,199.8046577,3.57123228,-99999.0,'11133222,11111222,99999999' 
TABS,ioos:station:wmo:42044:1,2006-05-03T03:00:00Z,26.1914,-97.0507,2.0,237.0655682,2.942940706,-99999.0,'11133222,11111222,99999999' 
TABS,ioos:station:wmo:42044:1,2006-05-03T03:30:00Z,26.1914,-97.0507,2.0,266.6178597,2.203837562,-99999.0,'11133222,11111222,99999999' 
TABS,ioos:station:wmo:42044:1,2006-05-03T04:00:00Z,26.1914,-97.0507,2.0,222.1622802,2.428353352,-99999.0,'11133222,11111222,99999999' 
TABS,ioos:station:wmo:42044:1,2006-05-03T04:30:00Z,26.1914,-97.0507,2.0,265.1203167,6.583859051,-99999.0,'11133222,11111222,99999999' 
TABS,ioos:station:wmo:42044:1,2006-05-03T05:00:00Z,26.1914,-97.0507,2.0,261.0625682,2.510478042,-99999.0,'11133222,11111222,99999999' 
TABS,ioos:station:wmo:42044:1,2006-05-03T05:30:00Z,26.1914,-97.0507,2.0,323.4092078,2.466029197,-99999.0,'11133222,11111222,99999999' 
TABS,ioos:station:wmo:42044:1,2006-05-03T06:00:00Z,26.1914,-97.0507,2.0,318.270796,5.453604313,-99999.0,'11133222,11111222,99999999' 
TABS,ioos:station:wmo:42044:1,2006-05-03T06:30:00Z,26.1914,-97.0507,2.0,338.2431641,4.802082881,-99999.0,'11133222,11111222,99999999' 
TABS,ioos:station:wmo:42044:1,2006-05-03T07:00:00Z,26.1914,-97.0507,2.0,322.5678841,6.926333807,-99999.0,'11133222,11111222,99999999' 
TABS,ioos:station:wmo:42044:1,2006-05-03T07:30:00Z,26.1914,-97.0507,2.0,288.8028632,4.436766841,-99999.0,'11133222,11111222,99999999' 
TABS,ioos:station:wmo:42044:1,2006-05-03T08:00:00Z,26.1914,-97.0507,2.0,331.6649325,4.487694285,-99999.0,'11133222,11111222,99999999' 
TABS,ioos:station:wmo:42044:1,2006-05-03T08:30:00Z,26.1914,-97.0507,2.0,335.0614748,7.091191719,-99999.0,'11133222,11111222,99999999' 
TABS,ioos:station:wmo:42044:1,2006-05-03T09:00:00Z,26.1914,-97.0507,2.0,346.1725801,8.661004561,-99999.0,'11133222,11111222,99999999' 
TABS,ioos:station:wmo:42044:1,2006-05-03T09:30:00Z,26.1914,-97.0507,2.0,352.5159951,5.143821537,-99999.0,'11133222,11111222,99999999' 
TABS,ioos:station:wmo:42044:1,2006-05-03T10:00:00Z,26.1914,-97.0507,2.0,353.0176189,7.485519354,-99999.0,'11133222,11111222,99999999' 
TABS,ioos:station:wmo:42044:1,2006-05-03T10:30:00Z,26.1914,-97.0507,2.0,8.260547957,9.953260772,-99999.0,'11133222,11111222,99999999' 
TABS,ioos:station:wmo:42044:1,2006-05-03T11:00:00Z,26.1914,-97.0507,2.0,4.613494957,10.4438355,-99999.0,'11111222,11111222,99999999' 
TABS,ioos:station:wmo:42044:1,2006-05-03T11:30:00Z,26.1914,-97.0507,2.0,0.868259879,11.2212878,-99999.0,'11111222,11111222,99999999' 
TABS,ioos:station:wmo:42044:1,2006-05-03T12:00:00Z,26.1914,-97.0507,2.0,0.628552268,10.03060317,-99999.0,'11111222,11111222,99999999' 
TABS,ioos:station:wmo:42044:1,2006-05-03T12:30:00Z,26.1914,-97.0507,2.0,6.191503403,10.19949018,-99999.0,'11111222,11111222,99999999' 
TABS,ioos:station:wmo:42044:1,2006-05-03T13:00:00Z,26.1914,-97.0507,2.0,353.9644247,14.55066322,-99999.0,'11111222,11111222,99999999' 
TABS,ioos:station:wmo:42044:1,2006-05-03T13:30:00Z,26.1914,-97.0507,2.0,7.99173873,13.45062452,-99999.0,'11111222,11111222,99999999' 
TABS,ioos:station:wmo:42044:1,2006-05-03T14:00:00Z,26.1914,-97.0507,2.0,8.488500757,13.34619421,-99999.0,'11111222,11111222,99999999' 
TABS,ioos:station:wmo:42044:1,2006-05-03T14:30:00Z,26.1914,-97.0507,2.0,359.1302784,13.83159427,-99999.0,'11111222,11144222,99999999' 
TABS,ioos:station:wmo:42044:1,2006-05-03T15:00:00Z,26.1914,-97.0507,2.0,7.915508169,15.46736241,-99999.0,'11111222,11111222,99999999' 
TABS,ioos:station:wmo:42044:1,2006-05-03T15:30:00Z,26.1914,-97.0507,2.0,354.0644453,13.92465799,-99999.0,'11111222,11111222,99999999' 
TABS,ioos:station:wmo:42044:1,2006-05-03T16:00:00Z,26.1914,-97.0507,2.0,356.98743,13.50867129,-99999.0,'11111222,11111222,99999999' 
TABS,ioos:station:wmo:42044:1,2006-05-03T16:30:00Z,26.1914,-97.0507,2.0,348.6440716,17.01308026,-99999.0,'11111222,11111222,99999999' 
TABS,ioos:station:wmo:42044:1,2006-05-03T17:00:00Z,26.1914,-97.0507,2.0,349.1192988,18.85905618,-99999.0,'11111222,11111222,99999999' 
TABS,ioos:station:wmo:42044:1,2006-05-03T17:30:00Z,26.1914,-97.0507,2.0,350.9210451,20.40565853,-99999.0,'11111222,11111222,99999999' 
TABS,ioos:station:wmo:42044:1,2006-05-03T18:00:00Z,26.1914,-97.0507,2.0,349.4814044,20.59611857,-99999.0,'11111222,11111222,99999999' 
TABS,ioos:station:wmo:42044:1,2006-05-03T18:30:00Z,26.1914,-97.0507,2.0,347.4834576,20.67130378,-99999.0,'11111222,11111222,99999999' 
TABS,ioos:station:wmo:42044:1,2006-05-03T19:00:00Z,26.1914,-97.0507,2.0,356.0448872,19.42627087,-99999.0,'11111222,11111222,99999999' 
TABS,ioos:station:wmo:42044:1,2006-05-03T19:30:00Z,26.1914,-97.0507,2.0,353.4435591,23.38293822,-99999.0,'11111222,11111222,99999999' 
TABS,ioos:station:wmo:42044:1,2006-05-03T20:00:00Z,26.1914,-97.0507,2.0,352.0234603,22.19474713,-99999.0,'11111222,11111222,99999999' 
TABS,ioos:station:wmo:42044:1,2006-05-03T20:30:00Z,26.1914,-97.0507,2.0,355.1530059,21.06533883,-99999.0,'11111222,11111222,99999999' 
TABS,ioos:station:wmo:42044:1,2006-05-03T21:00:00Z,26.1914,-97.0507,2.0,2.744684769,16.49892421,-99999.0,'11111222,11111222,99999999' 
TABS,ioos:station:wmo:42044:1,2006-05-03T21:30:00Z,26.1914,-97.0507,2.0,5.496930264,14.92864696,-99999.0,'11111222,11111222,99999999' 
TABS,ioos:station:wmo:42044:1,2006-05-03T22:00:00Z,26.1914,-97.0507,2.0,0.940683777,14.62196977,-99999.0,'11111222,11111222,99999999' 
TABS,ioos:station:wmo:42044:1,2006-05-03T22:30:00Z,26.1914,-97.0507,2.0,3.304113443,16.13682125,-99999.0,'11111222,11111222,99999999' 
TABS,ioos:station:wmo:42044:1,2006-05-03T23:00:00Z,26.1914,-97.0507,2.0,8.300436272,11.42972441,-99999.0,'11111222,11111222,99999999' 
TABS,ioos:station:wmo:42044:1,2006-05-03T23:30:00Z,26.1914,-97.0507,2.0,6.453414973,13.4351256,-99999.0,'11111222,11111222,99999999' 
TABS,ioos:station:wmo:42044:1,2006-05-04T00:00:00Z,26.1914,-97.0507,2.0,4.966529313,14.55464187,-99999.0,'11111222,11111222,99999999' 
TABS,ioos:station:wmo:42044:1,2006-05-04T00:30:00Z,26.1914,-97.0507,2.0,14.63951089,11.75150203,-99999.0,'11111222,11111222,99999999' 
TABS,ioos:station:wmo:42044:1,2006-05-04T01:00:00Z,26.1914,-97.0507,2.0,2.33861945,10.53877602,-99999.0,'11111222,11111222,99999999' 
TABS,ioos:station:wmo:42044:1,2006-05-04T01:30:00Z,26.1914,-97.0507,2.0,1.798436574,8.604237328,-99999.0,'11133222,11111222,99999999' 
TABS,ioos:station:wmo:42044:1,2006-05-04T02:00:00Z,26.1914,-97.0507,2.0,17.01921549,7.550662223,-99999.0,'11133222,11111222,99999999' 
TABS,ioos:station:wmo:42044:1,2006-05-04T02:30:00Z,26.1914,-97.0507,2.0,1.285803589,11.14280485,-99999.0,'11111222,11111222,99999999' 
TABS,ioos:station:wmo:42044:1,2006-05-04T03:00:00Z,26.1914,-97.0507,2.0,359.4558502,8.420380039,-99999.0,'11133222,11144222,99999999' 
TABS,ioos:station:wmo:42044:1,2006-05-04T03:30:00Z,26.1914,-97.0507,2.0,347.5753539,8.970089186,-99999.0,'11133222,11111222,99999999' 
TABS,ioos:station:wmo:42044:1,2006-05-04T04:00:00Z,26.1914,-97.0507,2.0,4.144824508,8.301710667,-99999.0,'11133222,11111222,99999999' 
TABS,ioos:station:wmo:42044:1,2006-05-04T04:30:00Z,26.1914,-97.0507,2.0,6.355449325,8.401630794,-99999.0,'11133222,11111222,99999999' 
TABS,ioos:station:wmo:42044:1,2006-05-04T05:00:00Z,26.1914,-97.0507,2.0,358.4906884,7.212503033,-99999.0,'11133222,11111222,99999999' 
TABS,ioos:station:wmo:42044:1,2006-05-04T05:30:00Z,26.1914,-97.0507,2.0,6.332801566,8.340893238,-99999.0,'11133222,11111222,99999999' 
TABS,ioos:station:wmo:42044:1,2006-05-04T06:00:00Z,26.1914,-97.0507,2.0,11.17145353,8.103542435,-99999.0,'11133222,11111222,99999999' 
TABS,ioos:station:wmo:42044:1,2006-05-04T06:30:00Z,26.1914,-97.0507,2.0,8.770953232,10.62423644,-99999.0,'11111222,11111222,99999999' 
TABS,ioos:station:wmo:42044:1,2006-05-04T07:00:00Z,26.1914,-97.0507,2.0,2.703148176,9.330380485,-99999.0,'11133222,11111222,99999999' 
TABS,ioos:station:wmo:42044:1,2006-05-04T07:30:00Z,26.1914,-97.0507,2.0,1.375591966,8.332400614,-99999.0,'11133222,11111222,99999999' 
TABS,ioos:station:wmo:42044:1,2006-05-04T08:00:00Z,26.1914,-97.0507,2.0,7.7679228,10.06233074,-99999.0,'11111222,11111222,99999999' 
TABS,ioos:station:wmo:42044:1,2006-05-04T08:30:00Z,26.1914,-97.0507,2.0,1.779431382,8.374037258,-99999.0,'11133222,11111222,99999999' 
TABS,ioos:station:wmo:42044:1,2006-05-04T09:00:00Z,26.1914,-97.0507,2.0,4.961119876,8.441623067,-99999.0,'11133222,11111222,99999999' 
TABS,ioos:station:wmo:42044:1,2006-05-04T09:30:00Z,26.1914,-97.0507,2.0,355.971258,11.52849079,-99999.0,'11111222,11111222,99999999' 
TABS,ioos:station:wmo:42044:1,2006-05-04T10:00:00Z,26.1914,-97.0507,2.0,5.184861471,10.62346459,-99999.0,'11111222,11111222,99999999' 
TABS,ioos:station:wmo:42044:1,2006-05-04T10:30:00Z,26.1914,-97.0507,2.0,357.160492,10.09239318,-99999.0,'11111222,11111222,99999999' 
TABS,ioos:station:wmo:42044:1,2006-05-04T11:00:00Z,26.1914,-97.0507,2.0,343.4149318,11.56098612,-99999.0,'11111222,11111222,99999999' 
TABS,ioos:station:wmo:42044:1,2006-05-04T11:30:00Z,26.1914,-97.0507,2.0,354.0655353,11.70272191,-99999.0,'11111222,11111222,99999999' 
TABS,ioos:station:wmo:42044:1,2006-05-04T12:00:00Z,26.1914,-97.0507,2.0,345.2321996,13.1028432,-99999.0,'11111222,11111222,99999999' 
TABS,ioos:station:wmo:42044:1,2006-05-04T12:30:00Z,26.1914,-97.0507,2.0,5.787096215,11.20711381,-99999.0,'11111222,11111222,99999999' 
TABS,ioos:station:wmo:42044:1,2006-05-04T13:00:00Z,26.1914,-97.0507,2.0,349.4736473,12.48003606,-99999.0,'11111222,11111222,99999999' 
TABS,ioos:station:wmo:42044:1,2006-05-04T13:30:00Z,26.1914,-97.0507,2.0,348.4621708,13.29874054,-99999.0,'11111222,11111222,99999999' 
TABS,ioos:station:wmo:42044:1,2006-05-04T14:00:00Z,26.1914,-97.0507,2.0,349.9154944,15.13381974,-99999.0,'11111222,11111222,99999999' 
TABS,ioos:station:wmo:42044:1,2006-05-04T14:30:00Z,26.1914,-97.0507,2.0,353.7874278,15.89334452,-99999.0,'11111222,11111222,99999999' 
TABS,ioos:station:wmo:42044:1,2006-05-04T15:00:00Z,26.1914,-97.0507,2.0,347.7354654,16.94678731,-99999.0,'11111222,11111222,99999999' 
TABS,ioos:station:wmo:42044:1,2006-05-04T15:30:00Z,26.1914,-97.0507,2.0,357.8804263,16.22110046,-99999.0,'11111222,11111222,99999999' 
TABS,ioos:station:wmo:42044:1,2006-05-04T16:00:00Z,26.1914,-97.0507,2.0,354.5409123,18.60438927,-99999.0,'11111222,11111222,99999999' 
TABS,ioos:station:wmo:42044:1,2006-05-04T16:30:00Z,26.1914,-97.0507,2.0,349.7590837,18.50481559,-99999.0,'11111222,11111222,99999999' 
TABS,ioos:station:wmo:42044:1,2006-05-04T17:00:00Z,26.1914,-97.0507,2.0,351.3358357,20.77711481,-99999.0,'11111222,11111222,99999999' 
TABS,ioos:station:wmo:42044:1,2006-05-04T17:30:00Z,26.1914,-97.0507,2.0,351.3580645,21.36254901,-99999.0,'11111222,11111222,99999999' 
TABS,ioos:station:wmo:42044:1,2006-05-04T18:00:00Z,26.1914,-97.0507,2.0,351.3034152,20.30344306,-99999.0,'11111222,11111222,99999999' 
TABS,ioos:station:wmo:42044:1,2006-05-04T18:30:00Z,26.1914,-97.0507,2.0,349.5465179,20.99853804,-99999.0,'11111222,11111222,99999999' 
TABS,ioos:station:wmo:42044:1,2006-05-04T19:00:00Z,26.1914,-97.0507,2.0,354.9048453,22.51898976,-99999.0,'11111222,11111222,99999999' 
TABS,ioos:station:wmo:42044:1,2006-05-04T19:30:00Z,26.1914,-97.0507,2.0,356.3614244,21.74383591,-99999.0,'11111222,11111222,99999999' 
TABS,ioos:station:wmo:42044:1,2006-05-04T20:00:00Z,26.1914,-97.0507,2.0,354.6839459,22.98888862,-99999.0,'11111222,11111222,99999999' 
TABS,ioos:station:wmo:42044:1,2006-05-04T20:30:00Z,26.1914,-97.0507,2.0,351.1772015,22.10153162,-99999.0,'11111222,11111222,99999999' 
TABS,ioos:station:wmo:42044:1,2006-05-04T21:00:00Z,26.1914,-97.0507,2.0,351.4270991,21.39910512,-99999.0,'11111222,11111222,99999999' 
TABS,ioos:station:wmo:42044:1,2006-05-04T21:30:00Z,26.1914,-97.0507,2.0,352.6365783,21.1443846,-99999.0,'11111222,11111222,99999999' 
TABS,ioos:station:wmo:42044:1,2006-05-04T22:00:00Z,26.1914,-97.0507,2.0,356.3049356,18.92935551,-99999.0,'11111222,11111222,99999999' 
TABS,ioos:station:wmo:42044:1,2006-05-04T22:30:00Z,26.1914,-97.0507,2.0,3.199742686,16.12513566,-99999.0,'11111222,11111222,99999999' 
TABS,ioos:station:wmo:42044:1,2006-05-04T23:00:00Z,26.1914,-97.0507,2.0,340.2135465,15.95180554,-99999.0,'11111222,11111222,99999999' 
TABS,ioos:station:wmo:42044:1,2006-05-04T23:30:00Z,26.1914,-97.0507,2.0,347.6252323,18.99124535,-99999.0,'11111222,11111222,99999999' 
TABS,ioos:station:wmo:42044:1,2006-05-05T00:00:00Z,26.1914,-97.0507,2.0,348.1772228,17.0824003,-99999.0,'11111222,11111222,99999999' 
TABS,ioos:station:wmo:42044:1,2006-05-05T00:30:00Z,26.1914,-97.0507,2.0,345.1037695,13.73148936,-99999.0,'11111222,11111222,99999999' 
TABS,ioos:station:wmo:42044:1,2006-05-05T01:00:00Z,26.1914,-97.0507,2.0,346.4358271,19.143986,-99999.0,'11111222,11111222,99999999' 